CW0133 Weather Reports


time (UTC)temp
F
wind
direction
speed
knots
gust
knots
rain 1hr
in
rain 24hr
in
rain mn
in
humidity
%
barometer
mb
20260505053504 72 172 8.7 16.5 0.00 0.00 0.00 85 1010.7
20260505053004 72 171 8.7 20.0 0.00 0.00 0.00 85 1010.6
20260505052503 72 174 9.6 20.0 0.00 0.00 0.00 85 1010.6
20260505052024 72 171 9.6 20.0 0.00 0.00 0.00 85 1010.6
20260505051503 72 166 8.7 17.4 0.00 0.00 0.00 85 1010.5
20260505051003 72 172 8.7 20.9 0.00 0.00 0.00 85 1010.5
20260505050504 72 173 9.6 20.9 0.00 0.00 0.00 85 1010.5
20260505041503 73 158 6.1 14.8 0.00 0.00 0.00 83 1010.5
20260505041003 73 159 6.1 12.2 0.00 0.00 0.00 83 1010.6
20260505040504 73 164 6.1 12.2 0.00 0.00 0.00 82 1010.5
20260505040024 73 163 6.1 15.6 0.00 0.00 0.00 82 1010.6
20260505035503 73 165 7.0 19.1 0.00 0.00 0.00 82 1010.6
20260505035003 73 169 7.0 19.1 0.00 0.00 0.00 81 1010.7
20260505034503 74 163 7.0 16.5 0.00 0.00 0.00 81 1010.6
20260505034003 74 161 6.1 16.5 0.00 0.00 0.00 81 1010.6
20260505033503 74 166 4.3 12.2 0.00 0.00 0.00 81 1010.5
20260505033024 74 164 5.2 12.2 0.00 0.00 0.00 81 1010.6
20260505032503 74 160 6.1 10.4 0.00 0.00 0.00 80 1010.4
20260505032003 74 166 7.0 15.6 0.00 0.00 0.00 80 1010.4
20260505031503 74 170 8.7 15.6 0.00 0.00 0.00 80 1010.3
20260505031003 74 167 6.1 13.9 0.00 0.00 0.00 80 1010.5
20260505030503 75 161 7.0 14.8 0.00 0.00 0.00 79 1010.6
20260505030004 75 161 7.0 14.8 0.00 0.00 0.00 79 1010.6
20260505025503 75 164 5.2 13.9 0.00 0.00 0.00 79 1010.6
20260505025003 75 163 5.2 12.2 0.00 0.00 0.00 78 1010.5
20260505024524 75 164 5.2 11.3 0.00 0.00 0.00 78 1010.5
20260505024003 75 162 4.3 10.4 0.00 0.00 0.00 78 1010.6
20260505023503 75 163 4.3 10.4 0.00 0.00 0.00 78 1010.5
20260505023003 75 167 5.2 10.4 0.00 0.00 0.00 77 1010.5
20260505022503 76 170 4.3 8.7 0.00 0.00 0.00 77 1010.5
20260505022024 76 162 4.3 8.7 0.00 0.00 0.00 77 1010.5
20260505021503 76 152 5.2 10.4 0.00 0.00 0.00 76 1010.4
20260505021003 76 162 6.1 13.9 0.00 0.00 0.00 76 1010.3
20260505020503 76 163 5.2 13.9 0.00 0.00 0.00 76 1010.2
20260505020003 76 159 5.2 12.2 0.00 0.00 0.00 75 1010.3
20260505015503 76 162 5.2 12.2 0.00 0.00 0.00 75 1010.2
20260505015004 77 162 5.2 13.9 0.00 0.00 0.00 74 1010.2
20260505014525 77 164 5.2 13.9 0.00 0.00 0.00 74 1010.1
20260505014025 77 159 5.2 10.4 0.00 0.00 0.00 73 1010.3
20260505013525 77 155 5.2 10.4 0.00 0.00 0.00 72 1010.2
20260505013004 77 167 5.2 10.4 0.00 0.00 0.00 70 1010.1
20260505012504 78 170 5.2 10.4 0.00 0.00 0.00 70 1010.1
20260505012004 78 168 5.2 13.9 0.00 0.00 0.00 70 1010.0
20260505011504 78 165 6.1 13.9 0.00 0.00 0.00 69 1010.1
20260505011025 78 168 6.1 12.2 0.00 0.00 0.00 69 1010.0
20260505010504 78 168 6.1 13.9 0.00 0.00 0.00 68 1009.9
20260505010004 78 163 7.0 13.9 0.00 0.00 0.00 68 1009.9
20260505005504 79 164 6.1 13.9 0.00 0.00 0.00 67 1009.9
20260505005025 79 165 5.2 14.8 0.00 0.00 0.00 67 1010.0
20260505004504 79 172 7.0 15.6 0.00 0.00 0.00 66 1010.0
20260505004004 79 174 8.7 15.6 0.00 0.00 0.00 66 1009.9
20260505003504 80 169 7.0 14.8 0.00 0.00 0.00 65 1009.9
20260505003004 80 162 7.0 15.6 0.00 0.00 0.00 65 1009.9
20260505002504 80 168 8.7 17.4 0.00 0.00 0.00 64 1009.9
20260505002025 80 173 9.6 17.4 0.00 0.00 0.00 64 1009.9
20260505001525 80 165 8.7 16.5 0.00 0.00 0.00 63 1009.8
20260505001004 81 159 8.7 16.5 0.00 0.00 0.00 63 1009.9
20260505000504 81 164 8.7 14.8 0.00 0.00 0.00 63 1010.0
20260505000004 81 170 8.7 14.8 0.00 0.00 0.00 62 1010.0
20260504235525 81 170 8.7 15.6 0.00 0.00 0.00 62 1009.9
20260504235004 81 168 8.7 15.6 0.00 0.00 0.00 61 1010.0
20260504234504 81 169 8.7 17.4 0.00 0.00 0.00 61 1010.1
20260504234025 82 176 9.6 17.4 0.00 0.00 0.00 60 1010.2
20260504233504 82 178 8.7 17.4 0.00 0.00 0.00 60 1010.3
20260504233004 82 181 9.6 19.1 0.00 0.00 0.00 59 1010.3
20260504232504 82 180 10.4 19.1 0.00 0.00 0.00 60 1010.3
20260504232004 82 173 11.3 24.3 0.00 0.00 0.00 59 1010.3
20260504231504 82 168 10.4 24.3 0.00 0.00 0.00 59 1010.4
20260504231004 82 168 8.7 21.7 0.00 0.00 0.00 59 1010.4
20260504230503 82 169 9.6 17.4 0.00 0.00 0.00 59 1010.6
20260504230004 82 167 8.7 17.4 0.00 0.00 0.00 59 1010.7
20260504225504 82 166 8.7 16.5 0.00 0.00 0.00 58 1010.7
20260504225004 83 172 8.7 19.1 0.00 0.00 0.00 58 1010.8
20260504224504 83 173 9.6 20.0 0.00 0.00 0.00 58 1010.8
20260504224004 83 174 10.4 20.0 0.00 0.00 0.00 57 1010.8
20260504223525 83 170 10.4 20.0 0.00 0.00 0.00 58 1011.0
20260504223003 83 169 9.6 20.9 0.00 0.00 0.00 58 1010.8
20260504222504 83 166 9.6 20.9 0.00 0.00 0.00 58 1010.9
20260504222004 83 169 10.4 22.6 0.00 0.00 0.00 59 1010.9
20260504221524 83 171 10.4 22.6 0.00 0.00 0.00 59 1011.0
20260504221003 83 161 9.6 20.0 0.00 0.00 0.00 58 1011.1
20260504220503 83 163 9.6 16.5 0.00 0.00 0.00 59 1011.1
20260504220004 84 167 9.6 16.5 0.00 0.00 0.00 57 1011.1
20260504215504 84 171 9.6 20.0 0.00 0.00 0.00 58 1011.1
20260504215004 84 168 10.4 20.0 0.00 0.00 0.00 57 1011.1
20260504214504 85 165 9.6 21.7 0.00 0.00 0.00 58 1011.1
20260504214024 84 167 9.6 21.7 0.00 0.00 0.00 57 1011.2
20260504213524 84 169 9.6 20.9 0.00 0.00 0.00 57 1011.1
20260504213004 84 176 7.0 14.8 0.00 0.00 0.00 56 1011.3
20260504212504 84 168 8.7 16.5 0.00 0.00 0.00 58 1011.4
20260504212004 85 166 8.7 16.5 0.00 0.00 0.00 55 1011.4
20260504211504 85 170 8.7 16.5 0.00 0.00 0.00 56 1011.6
20260504211024 85 168 9.6 22.6 0.00 0.00 0.00 55 1011.5
20260504210504 85 159 9.6 22.6 0.00 0.00 0.00 55 1011.7
20260504210025 84 152 10.4 20.9 0.00 0.00 0.00 58 1011.8
20260504205503 84 158 9.6 17.4 0.00 0.00 0.00 57 1011.8
20260504205003 84 170 10.4 17.4 0.00 0.00 0.00 55 1011.9
20260504204525 84 171 10.4 19.1 0.00 0.00 0.00 57 1011.9
20260504204004 84 157 9.6 20.0 0.00 0.00 0.00 54 1012.0
20260504203504 85 161 8.7 20.0 0.00 0.00 0.00 56 1012.2
20260504203004 85 173 7.0 17.4 0.00 0.00 0.00 56 1012.3
20260504202504 84 165 8.7 22.6 0.00 0.00 0.00 56 1012.5
20260504202003 84 166 9.6 22.6 0.00 0.00 0.00 56 1012.6
20260504201504 84 176 8.7 21.7 0.00 0.00 0.00 58 1012.5
20260504201024 84 179 9.6 21.7 0.00 0.00 0.00 56 1012.5
20260504200503 84 169 9.6 20.9 0.00 0.00 0.00 56 1012.8
20260504200024 84 158 9.6 20.9 0.00 0.00 0.00 58 1012.8
20260504195503 84 159 8.7 17.4 0.00 0.00 0.00 58 1013.1
20260504195003 84 172 8.7 20.0 0.00 0.00 0.00 57 1013.1
20260504194504 83 167 9.6 20.0 0.00 0.00 0.00 58 1013.2
20260504194004 83 166 9.6 17.4 0.00 0.00 0.00 59 1013.1
20260504193504 83 172 8.7 17.4 0.00 0.00 0.00 59 1013.2
20260504193004 82 177 9.6 19.1 0.00 0.00 0.00 58 1013.4
20260504192503 82 170 9.6 19.1 0.00 0.00 0.00 60 1013.4
20260504192003 82 162 8.7 16.5 0.00 0.00 0.00 60 1013.4
20260504191503 82 170 8.7 15.6 0.00 0.00 0.00 62 1013.5
20260504191004 82 171 9.6 19.1 0.00 0.00 0.00 60 1013.7
20260504190504 82 172 8.7 19.1 0.00 0.00 0.00 60 1013.7
20260504190004 82 175 8.7 16.5 0.00 0.00 0.00 60 1013.8
20260504185503 82 175 9.6 17.4 0.00 0.00 0.00 62 1013.8
20260504185004 82 173 9.6 20.0 0.00 0.00 0.00 59 1013.8
20260504184503 82 173 9.6 20.0 0.00 0.00 0.00 58 1014.0
20260504184003 82 169 8.7 15.6 0.00 0.00 0.00 59 1014.1
20260504183524 82 174 8.7 16.5 0.00 0.00 0.00 59 1014.2
20260504183004 82 175 8.7 17.4 0.00 0.00 0.00 60 1014.3
20260504182525 81 166 9.6 19.1 0.00 0.00 0.00 60 1014.3
20260504182004 80 167 9.6 19.1 0.00 0.00 0.00 63 1014.3
20260504181504 80 166 9.6 21.7 0.00 0.00 0.00 61 1014.4
20260504181003 80 171 9.6 21.7 0.00 0.00 0.00 61 1014.3
20260504180504 81 175 9.6 20.9 0.00 0.00 0.00 60 1014.3
20260504180003 81 174 9.6 20.9 0.00 0.00 0.00 61 1014.5
20260504175524 81 176 8.7 19.1 0.00 0.00 0.00 62 1014.6
20260504175004 80 176 8.7 17.4 0.00 0.00 0.00 63 1014.7
20260504174504 79 172 8.7 17.4 0.00 0.00 0.00 64 1014.8
20260504174003 79 174 8.7 19.1 0.00 0.00 0.00 66 1015.1
20260504173503 77 180 5.2 19.1 0.00 0.00 0.00 69 1015.2
20260504173003 76 185 6.1 14.8 0.00 0.00 0.00 70 1015.3
20260504172503 76 189 8.7 14.8 0.00 0.00 0.00 70 1015.3
20260504172003 76 187 8.7 16.5 0.00 0.00 0.00 69 1015.4
20260504171503 75 184 8.7 17.4 0.00 0.00 0.00 69 1015.4
20260504171003 74 182 8.7 17.4 0.00 0.00 0.00 71 1015.4
20260504170525 74 187 7.0 16.5 0.00 0.00 0.00 71 1015.4
20260504151003 71 154 7.0 14.8 0.00 0.00 0.00 76 1016.4
20260504150503 70 150 6.1 14.8 0.00 0.00 0.00 76 1016.4
20260504141003 67 165 7.0 19.1 0.00 0.00 0.00 78 1016.6
20260504140524 67 163 7.0 19.1 0.00 0.00 0.00 78 1016.5
20260504130504 62 171 5.2 10.4 0.00 0.00 0.00 86 1016.5
20260504110504 58 159 0.0 3.5 0.00 0.00 0.00 82 1016.2
20260504100504 61 159 0.9 1.7 0.00 0.00 0.00 81 1016.3
20260504081503 63 153 1.7 5.2 0.00 0.00 0.00 77 1017.0
20260504081003 63 153 3.5 5.2 0.00 0.00 0.00 77 1017.0
20260504080524 63 153 3.5 6.1 0.00 0.00 0.00 77 1017.0